International Virtual Aviation Organisation

Russian Federation and Kazakhstan MCD

 

Карточка аэропорта USCC

Внимание!
Информация на этой странице в стадии наполнения.
Если вы не увидели какой-то информации, или заметили неточность - пожалуйста сообщите нам!
Спасибо!
Команда RU-STAFF
Название аэропортаБаландино
Название аэропорта (англ.)Balandino
Превышение769 ft. (234.4 m.)
Координаты55°18.348', 61°30.198'
Высота перехода1500m (5700ft)
Эшелон переходаFL080
Коды ответчика5560-5563
Зона ОрВДЕкатеринбург РПИ (USSV)
Данные METARUSCC 271730Z 33002MPS 3700 -SN BR BKN008 M12/M13 Q1028 R27/390032 NOSIG RMK QFE750
Проноз погоды (TAF)USCC 271100Z 2712/2812 34003G08MPS 4000 -SN BR OVC011 TEMPO 2712/2806 07003G08MPS 0800 +SN VV002
NOTAMshow/hide NOTAM
AWOS   TABLE

Информация о ВПП


Диспетчерские позиции

Позывной Наименование органа УВД Частота
USCC_APPЧелябинск-Подход124.7
USCC_TWRЧелябинск-Старт125.2



Спутниковое изображение